Kodiak, AK

5:22 AM AKDT on September 16, 2019 (GMT -0800)
Kodiak

Weather History for PADQ - August, 2019

Change the Weather History Date:

Wednesday, August 21, 2019

  Actual Average Record
Temperature  
Mean Temperature 54 °F 55 °F  
Max Temperature 60 °F 61 °F 81 °F (1948)
Min Temperature 48 °F 49 °F 38 °F (1986)
Degree Days  
Heating Degree Days 11 10  
Month to date heating degree days 66 196  
Since 1 June heating degree days 539 984  
Since 1 July heating degree days 210 523  
Cooling Degree Days 0 0  
Month to date cooling degree days 45 0  
Year to date cooling degree days 56 1  
Since 1 June cooling degree days 56 1  
Growing Degree Days 4 (Base 50)    
Moisture  
Dew Point 50 °F    
Average Humidity 83    
Maximum Humidity 93    
Minimum Humidity 72    
Precipitation  
Precipitation T in 0.14 in 1.61 in (1972)
Month to date precipitation 0.08 2.94  
Year to date precipitation 34.36 45.17  
Snow  
Snow 0.00 in 0.00 in - ()
Month to date snowfall 0.0 0.0  
Since 1 July snowfall 0.0 0.0  
Snow Depth -    
Sea Level Pressure  
Sea Level Pressure 29.71 in    
Wind  
Wind Speed 6 mph (ENE)    
Max Wind Speed 12 mph    
Max Gust Speed 14 mph    
Visibility 10 miles    
Events      
T = Trace of Precipitation, MM = Missing Value Source: NWS Daily Summary

Daily Weather History Graph

Daily Weather History Graph

Search for Another Location

Airport or City:

Astronomy

Aug. 21, 2019 Rise Set
Actual Time 6:47 AM AKDT 9:37 PM AKDT
Civil Twilight 6:02 AM AKDT 10:21 PM AKDT
Nautical Twilight 5:02 AM AKDT 11:20 PM AKDT
Astronomical Twilight 3:37 AM AKDT 12:42 AM AKDT
Moon 11:44 PM AKDT (8/21) 1:44 PM AKDT (8/21)
Length of Visible Light 16h 19m
Length of Day
14h 50m
Waning Gibbous, 68% of the Moon is Illuminated
Aug 21
Waning Gibbous
Aug 23
Last Quarter
Aug 30
New
Sep 5
First Quarter
Sep 13
Full

Hourly Weather History & Observations

Time (AKDT) Temp. Dew Point Humidity Pressure Visibility Wind Dir Wind Speed Gust Speed Precip Events Conditions
12:53 AM 51.1 °F 48.0 °F 89% 29.75 in 10.0 mi West 5.8 mph - N/A   Overcast
1:53 AM 51.1 °F 48.0 °F 89% 29.75 in 10.0 mi NW 5.8 mph - 0.00 in   Overcast
2:53 AM 51.1 °F 46.9 °F 86% 29.75 in 10.0 mi NW 5.8 mph - N/A   Overcast
3:53 AM 51.1 °F 46.9 °F 86% 29.75 in 10.0 mi NW 6.9 mph - N/A   Overcast
4:53 AM 48.9 °F 46.0 °F 90% 29.75 in 9.0 mi WSW 3.5 mph - N/A   Overcast
5:53 AM 50.0 °F 46.9 °F 89% 29.75 in 10.0 mi WSW 3.5 mph - N/A   Overcast
6:53 AM 48.0 °F 45.0 °F 89% 29.75 in 9.0 mi West 4.6 mph - N/A   Overcast
7:53 AM 48.0 °F 45.0 °F 89% 29.75 in 9.0 mi West 4.6 mph - N/A   Clear
8:53 AM 53.1 °F 48.0 °F 83% 29.75 in 9.0 mi West 3.5 mph - N/A   Clear
9:53 AM 54.0 °F 48.0 °F 80% 29.75 in 10.0 mi SE 3.5 mph - N/A   Clear
10:53 AM 55.9 °F 48.9 °F 77% 29.75 in 10.0 mi East 5.8 mph - N/A   Clear
11:53 AM 57.0 °F 50.0 °F 77% 29.75 in 9.0 mi ENE 6.9 mph - N/A   Clear
12:53 PM 57.0 °F 50.0 °F 77% 29.75 in 9.0 mi East 6.9 mph - N/A   Partly Cloudy
1:53 PM 55.9 °F 48.9 °F 77% 29.75 in 10.0 mi ESE 6.9 mph - N/A   Overcast
2:53 PM 59.0 °F 51.1 °F 75% 29.73 in 10.0 mi East 9.2 mph - N/A   Overcast
3:53 PM 60.1 °F 51.1 °F 72% 29.72 in 10.0 mi East 11.5 mph - N/A   Partly Cloudy
4:29 PM 59.0 °F 51.1 °F 75% 29.71 in 10.0 mi East 12.7 mph - N/A   Mostly Cloudy
4:53 PM 57.9 °F 51.1 °F 78% 29.71 in 10.0 mi East 10.4 mph - N/A   Mostly Cloudy
5:53 PM 57.9 °F 52.0 °F 81% 29.70 in 10.0 mi East 11.5 mph - N/A   Mostly Cloudy
6:00 PM 57.9 °F 52.0 °F 81% 29.70 in 10.0 mi ENE 11.5 mph - N/A   Overcast
6:12 PM 57.9 °F 52.0 °F 81% 29.69 in 10.0 mi ENE 11.5 mph - N/A   Overcast
6:53 PM 57.9 °F 52.0 °F 81% 29.69 in 10.0 mi ENE 9.2 mph - N/A   Overcast
7:53 PM 57.0 °F 51.1 °F 81% 29.68 in 10.0 mi East 9.2 mph - N/A   Overcast
8:34 PM 57.9 °F 51.1 °F 78% 29.66 in 10.0 mi NE 9.2 mph - N/A   Overcast
8:53 PM 57.0 °F 51.1 °F 81% 29.67 in 10.0 mi ENE 8.1 mph - N/A   Mostly Cloudy
9:29 PM 57.0 °F 51.1 °F 81% 29.65 in 10.0 mi NE 6.9 mph - N/A   Scattered Clouds
9:53 PM 55.9 °F 51.1 °F 84% 29.65 in 10.0 mi NE 5.8 mph - N/A   Clear
10:06 PM 55.9 °F 51.1 °F 84% 29.65 in 10.0 mi East 5.8 mph - N/A   Partly Cloudy
10:19 PM 57.0 °F 52.0 °F 83% 29.64 in 10.0 mi ENE 8.1 mph - N/A   Mostly Cloudy
10:53 PM 57.0 °F 53.1 °F 87% 29.63 in 10.0 mi ENE 8.1 mph - N/A   Overcast
11:53 PM 57.0 °F 53.1 °F 87% 29.62 in 10.0 mi ENE 6.9 mph - N/A   Overcast